Location: Invercargill
(46.4000°S, 168.3500°E)
Time: 19:35:02
(UTC+12:00)

Cosmos 2237 Rocket - Pass Details

Date: 14 May 2021
Orbit: 836 x 848 km, 71.0° (Epoch: 14 June)

Event Time Altitude Azimuth Distance (km) Brightness Sun altitude
Rises 18:50:44 0° 349° (N) 3,392 5.7 -14.7°
Reaches altitude 10° 18:53:12 10° 353° (N) 2,467 4.9 -15.1°
Maximum altitude 18:58:44 57° 70° (ENE) 1,007 2.3 -16.1°
Enters shadow 19:03:14 16° 143° (SE) 2,098 3.8 -16.9°
